Regional Weather Roundup
Issued by NWS

Home | Current Version | Previous Version | Graphics & Text | Print | Product List | Glossary On
Versions: 1 2 3 4 5 6 7 8 9 10 11 12 13 14 15 16 17 18 19 20 21 22 23 24 25 26 27 28 29 30 31 32 33 34 35 36 37 38 39 40 41 42 43 44 45 46 47 48 49 50
000
ASUS44 KFWD 202315
RWRTX
NORTH TEXAS HOURLY WEATHER ROUNDUP
NATIONAL WEATHER SERVICE FORT WORTH TX
500 PM CST SAT JAN 20 2018

NOTE: "FAIR" INDICATES FEW OR NO CLOUDS BELOW 12,000 FEET WITH NO
SIGNIFICANT WEATHER AND/OR OBSTRUCTIONS TO VISIBILITY.

TXZ118-119-210000-
DALLAS/FORT WORTH METROPLEX

CITY           SKY/WX    TMP DP  RH WIND       PRES   REMARKS
DFW AIRPORT    FAIR      72  54  53 S20       29.87R
DALLAS LOVE    FAIR      69  55  60 S21G31    29.89R
FTW MEACHAM    FAIR      73  54  51 SE16      29.86R
DAL-EXECUTIVE  FAIR      69  55  60 S14G28    29.89R
FTW-ALLIANCE   FAIR      72  52  49 S15G23    29.86R
FTW-NAS-JRB    FAIR      73  51  46 S17G24    29.86S
FTW-SPINKS     CLEAR     72  54  53 SE15G23   29.89R
ARLINGTON      FAIR      70  54  56 S18G24    29.88R
GRAND PRAIRIE  CLEAR     70  54  56 SE14G21   29.90R
ADDISON        CLEAR     68  54  60 S15G24    29.90R
MESQUITE       PTCLDY    66  55  68 S16G25    29.92S
LANCASTER      FAIR      68  55  63 S17G23    29.92S
$$

TXZ091>094-102>105-117-120-121-131>134-210000-
NORTH CENTRAL TEXAS

CITY           SKY/WX    TMP DP  RH WIND       PRES   REMARKS
SHRMAN/DENISON FAIR      67  52  57 S17       29.88S
GAINESVILLE    FAIR      67  51  56 S20       29.87R
BOWIE          FAIR      73  37  27 S10G24    29.82S
BRIDGEPORT     FAIR      75  38  26 S15       29.85S
DECATUR        FAIR      73  46  38 SE14G21   29.83S
DENTON         FAIR      70  52  52 S15       29.86S
MCKINNEY       FAIR      66  55  67 S22       29.89S
BONHAM         FAIR      64  54  69 S18G25    29.91R
GREENVILLE     CLOUDY    66  57  72 S14G23    29.93F
ROCKWALL       FAIR      67  55  67 S21G26    29.91S
TERRELL        FAIR      65  56  72 S16       29.93S
WAXAHACHIE     FAIR      68  56  65 S18       29.92R
CLEBURNE       FAIR      72  54  53 S16       29.90R
GRANBURY       FAIR      77  47  34 SE15G21   29.87R
$$

TXZ083>090-098>101-113>116-127>130-139>142-154-155-210000-
WESTERN NORTH TEXAS

CITY           SKY/WX    TMP DP  RH WIND       PRES   REMARKS
WICHITA FALLS  FAIR      73  35  25 S17       29.78R
WF-KICKAPOO    FAIR      74  36  25 S12G17    29.81R
VERNON         FAIR      76  15  10 S15       29.77R
ABILENE        FAIR      74  32  21 SW17      29.83F
ABILENE-DYESS  FAIR      75  36  24 S14       29.82F
GRAHAM           N/A     78  33  19 S10G18    29.80S
BRECKENRIDGE   FAIR      78  28  15 SW14G20   29.82F HAZE
CISCO          FAIR      77  30  18 S13G28    29.85S
EASTLAND       FAIR      77  32  19 S16G23    29.84S
RANGER         FAIR      73  37  27 S10G20    29.85S
MINERAL WELLS  FAIR      76  36  23 S13G24    29.83R
STEPHENVILLE   FAIR      76  37  24 S10G18    29.89S
COMANCHE       FAIR      77  37  23 S17       29.87S
BROWNWOOD      FAIR      77  32  19 S9        29.87S
COLEMAN          N/A     77  30  18 SW13      29.86
$$

TXZ143>147-156>162-174-175-210000-
CENTRAL TEXAS

CITY           SKY/WX    TMP DP  RH WIND       PRES   REMARKS
WACO           FAIR      66  55  67 S20       29.93R
WACO-TSTC      PTCLDY    68  57  68 S18       29.94R
WACO-MCGREGOR  FAIR      67  56  67 S25       29.93R
CORSICANA      CLOUDY    65  58  78 S20       29.97R
MEXIA          CLOUDY    64  56  77 S17G28    29.96S
HEARNE         CLOUDY    63  62  94 SE5       30.01R
CAMERON        CLOUDY    65  58  77 S14G22    29.98R
TEMPLE         FAIR      65  56  72 S24G33    29.95R
KILLEEN        FAIR      68  54  59 SE16      29.92R
KILLEEN-SKYLRK FAIR      69  55  60 S16       29.94R
FORT HOOD      FAIR      70  55  57 S14       29.90R
GATESVILLE     FAIR      72  50  46 S17G23    29.93R
HAMILTON       FAIR      75  45  33 S16       29.90S
LAMPASAS       FAIR      71  52  52 S13G18    29.92R
$$

TXZ095>097-106>112-122>126-135>138-148>153-164>167-210000-
EAST TEXAS

CITY           SKY/WX    TMP DP  RH WIND       PRES   REMARKS
PARIS          CLOUDY    62  56  80 S16       29.95R
SULPHUR SPRNGS CLOUDY    65  56  73 S14       29.97S
MOUNT PLEASANT MOCLDY    63  58  83 S10       30.00S
GILMER         CLOUDY    63  58  85 SE5       29.99S
MINEOLA        CLOUDY    64  59  82 S6        29.97S
TYLER          CLOUDY    64  60  87 S16       29.98S
LONGVIEW       FAIR      67  61  81 S9        29.99S
MARSHALL       MOCLDY    65  58  79 SE5       30.03S
ATHENS         CLOUDY    59  55  88 S8G17     29.97S
PALESTINE      MOCLDY    66  60  82 S9        30.00S
JACKSONVILLE   MOCLDY    66  61  82 S7G16     30.02R
CENTER         CLOUDY    65  57  75 SE7G16    30.05R
NACOGDOCHES    CLOUDY    66  60  81 SE10      30.03R
LUFKIN         CLOUDY    65  62  90 SE9       30.03S
$$

SUPPLEMENTAL OBSERVATIONS (NWS FORT WORTH AREA)

CITY           SKY/WX    TMP DP  RH WIND       PRES   REMARKS
DENISON DAM      N/A     66  52  59 S15         N/A
CADDO GRASSLND   N/A     63  52  67 S18G25      N/A
PAT MAYSE LAKE   N/A     61  57  88 SE22        N/A
GREENVILLE       N/A     63  54  72 S15G22      N/A
CEDAR HILL       N/A     70  54  56 S12G23      N/A
LBJ GRASSLAND    N/A     73  45  35 S14         N/A
POSSUM KINGDOM   N/A     79  32  18 S13G22      N/A
GRANBURY         N/A     75  45  33 S16G25      N/A
COMANCHE         N/A     77  32  19 S13G22      N/A
MCGREGOR         N/A     66  54  63 S24         N/A
TEMPLE           N/A     64  55  72 S18G25      N/A
LAKE LIMESTONE   N/A     64  59  82 S14         N/A
ATHENS           N/A     63  57  82 S9G22       N/A
$$

SUPPLEMENTAL OBSERVATIONS (NWS NORMAN AREA)

CITY           SKY/WX    TMP DP  RH WIND       PRES   REMARKS
GOODLETT         N/A     77  20  11 S15       29.73S
ODELL            N/A     73  29  19 S15       29.76S
CROWELL          N/A     76  28  17 S15       29.76S
KNOX CITY        N/A     77  24  14 S17       29.78S
SEYMOUR          N/A     76  25  14 S14       29.78S
MILLERS CREEK    N/A     73  32  21 S14G23      N/A
$$

SUPPLEMENTAL OBSERVATIONS (NWS SAN ANGELO AREA)

CITY           SKY/WX    TMP DP  RH WIND       PRES   REMARKS
WEINERT          N/A     77  28  16 S15       29.79S
HASKELL          N/A     76  24  14 S16G22    29.79S
THROCKMORTON     N/A     76  35  23 S12       29.81S
STAMFORD         N/A     76  34  22 S15       29.82R
CLYDE            N/A     74  33  22 S13       29.86S
HAMBY            N/A     75  32  20 S16G23      N/A
IVIE RESERVOIR   N/A     79  32  18 S15G23      N/A
COLORADO BEND    N/A     72  48  43 S12G22      N/A
$$

SUPPLEMENTAL OBSERVATIONS (NWS SHREVEPORT AREA)

CITY           SKY/WX    TMP DP  RH WIND       PRES   REMARKS
CLARKSVILLE      N/A     63  55  77 S10         N/A
TEXARKANA        N/A     64  57  77 SE5         N/A
LINDEN           N/A     64  57  77 S3G12       N/A
CADDO LAKE       N/A     66  57  72 SE5         N/A
GILMER           N/A     64  59  82 S7          N/A
HENDERSON        N/A     66  59  77 S6          N/A
LUFKIN           N/A     66  61  82 MISG        N/A
N SABINE NF      N/A     64  59  82 MISG        N/A
S SABINE NF      N/A     64  59  82 S3          N/A
$$

SUPPLEMENTAL OBSERVATIONS ARE A COLLECTION OF AUTOMATED INSTRUMENTS
THAT ARE MAINTAINED BY A VARIETY OF FEDERAL AND STATE AGENCIES.
CERTAIN ELEMENTS...SUCH AS HUMIDITY VALUES AND SUSTAINED WIND
SPEEDS...MAY BE APPROXIMATED.





USA.gov is the U.S. government's official web portal to all federal, state and local government web resources and services.